ROMMA est une association bénévole à but non lucratif. Votre soutien est indispensable : ADHERER à ROMMA ou FAIRE un DON

Saint-Léger-les-Mélèzes - (05, Hautes-Alpes)

Champsaur (1245 m)   Longitude: 6° 11' 42" E    Latitude: 44° 38' 38" N Station partenaire n°51
 

Détail journalier du     <<     >>

Température Precipitation Humidité Vent Dir Rafale Dir. rafale Ensol.
Heure (°C) (mm) (%) (km/h) (km/h) (min)
01:00 12.60801SSO5SSO0
02:00 12.50802S6SSE0
03:00 12.20811SSO8SSO0
04:00 11.90811S6S0
05:00 11.90812S5S0
06:00 11.50813S8S0
07:00 11.40811S5S0
08:00 11.30822S6S0
09:00 12.90781S6S10
10:00 16.406705ESE60
11:00 17.10611ONO6ONO0
12:00 20.10571ONO8ONO0
13:00 22.70463ONO13ONO20
14:00 24.20434ONO13O60
15:00 25.30374ONO13O60
16:00 25.70384ONO16ONO60
17:00 26.50363ONO15OSO60
18:00 26.10382SO13SSE60
19:00 23.60472SSO13SSE30
20:00 20.30551SSO11S0
21:00 18.306106SSO0
22:00 17.306506SSE0
23:00 16.30691S8S0
minuit 15.60723S8S0

Graphique du 13-09-2019

 

Serveur OMMA